Preview of NWS' New Version of Forecast
This preview is not operational and should not be used for support decisions.
Latest weather observations around

Council Bluffs (KCBF)

Using English Units (Switch to International System of Units)
Date/ Time (CDT) Wind (mph) Vis. (mi) Weather Sky Cond. Temp (°F) Rel. Humidity Wind Chill (°F) Heat Index (°F) Pressure Precip. (in)
Air Dwpt 6 hour Altimeter (inHg) Sea level (inHg) 1 hr 3 hr 6 hr
Max Min
Jun 19 04:15 N 5 3 Fog/Mist OVC006 63 63     100%     29.82        
Jun 19 03:55 N 3 4 Fog/Mist OVC006 63 63     100%     29.82        
Jun 19 03:35 Calm 4 Fog/Mist OVC006 63 63     100%     29.82        
Jun 19 03:15 NNE 5 3 Fog/Mist BKN004 OVC065 63 63     100%     29.81        
Jun 19 02:55 NNE 5 2.5 Fog/Mist FEW003 SCT049 OVC060 63 63     100%     29.8        
Jun 19 02:35 N 7 3 Fog/Mist FEW049 OVC060 63 63     100%     29.81        
Jun 19 02:15 NNE 6 4 Fog/Mist OVC060 63 63     100%     29.82        
Jun 19 01:55 NNE 6 5 Fog/Mist FEW014 OVC060 64 64     100%     29.84        
Jun 19 01:35 NE 7 6 Fog/Mist SCT007 BKN012 OVC065 64 64     100%     29.84        
Jun 19 01:15 NNE 8 4 Fog/Mist OVC005 64 64     100%     29.85        
Jun 19 00:55 NE 8 4 Fog/Mist BKN004 OVC008 64 64     100%     29.86        
Jun 19 00:35 NNE 6 3 Fog/Mist BKN007 OVC010 64 64     100%     29.86        
Jun 19 00:15 N 6 3 Fog/Mist OVC009 64 64     100%     29.87        
Jun 18 23:55 Calm 4 Fog/Mist OVC006 64 64     100%     29.88        
Jun 18 23:35 N 3 6 Fog/Mist OVC006 64 64     100%     29.88        
Jun 18 23:15 NNE 5 7 Cloudy OVC007 64 64     100%     29.88        
Jun 18 22:55 NNE 5 6 Fog/Mist OVC006 64 64     100%     29.88   0    
Jun 18 22:35 NE 5 6 Fog/Mist OVC005 64 64     100%     29.88        
Jun 18 22:15 NE 6 6 Fog/Mist OVC005 64 64     100%     29.87        
Jun 18 21:55 NE 6 6 Fog/Mist OVC004 64 64     100%     29.87        
Jun 18 21:35 N 9 9 Cloudy BKN004 OVC075 64 64     100%     29.86        
Jun 18 21:15 NNE 8 9 Mostly Cloudy FEW004 BKN070 BKN085 64 64     100%     29.85        
Jun 18 20:55 NE 6 7 Mostly Clear FEW080 64 64     100%     29.85        
Jun 18 20:35 NE 7 5 Fog/Mist CLR 64 64     100%     29.86        
Jun 18 20:15 ENE 6 6 Fog/Mist FEW007 FEW034 64 64     100%     29.87        
Jun 18 19:55 ENE 6 6 Fog/Mist FEW007 BKN012 BKN023 64 64     100%     29.88   0    
Jun 18 19:35 NE 6 5 Fog/Mist SCT008 BKN012 OVC024 66 66     100%     29.89        
Jun 18 19:15 NE 5 4 Fog/Mist SCT008 SCT013 OVC024 66 66     100%     29.89        
Jun 18 18:55 NE 7 3 Fog/Mist SCT007 BKN013 BKN019 66 66     100%     29.89   0    
Jun 18 18:35 NNE 5 2.5 Fog/Mist SCT006 BKN009 BKN019 66 66     100%     29.89        
Jun 18 18:15 NNE 6 2.5 Light Rain SCT006 SCT009 BKN021 66 66     100%     29.9        
Jun 18 17:55 NNE 8 3 Light Rain FEW007 SCT021 66 66     100%     29.9   0    
Jun 18 17:35 NNE 7 2 Light Rain FEW006 FEW010 FEW019 66 66     100%     29.9        
Jun 18 17:15 NNE 6 1.75 Light Rain SCT006 BKN011 BKN016 66 66     100%     29.91        
Jun 18 16:55 NNE 8 2 Light Rain FEW007 SCT012 66 66     100%     29.92   0    
Jun 18 16:35 NNE 7 2 Light Rain SCT008 BKN013 66 66     100%     29.92        
Jun 18 16:15 NNE 7 1.75 Light Rain BKN008 BKN013 BKN037 68 68     100%     29.92        
Jun 18 15:55 NNE 8 2.5 Light Rain SCT009 SCT037 66 66     100%     29.92   0    
Jun 18 15:35 N 6 2.5 Light Rain FEW007 SCT039 68 68     100%     29.92        
Jun 18 15:15 N 6 2.5 Light Rain SCT038 SCT050 68 68     100%     29.92        
Jun 18 14:55 N 8 4 Light Drizzle FEW011 SCT039 BKN055 68 68     100%     29.92        
Jun 18 14:35 N 10 9 Cloudy FEW012 SCT055 OVC075 68 68     100%     29.92        
Jun 18 14:15 NNE 9 9 Cloudy SCT012 SCT036 OVC075 68 68     100%     29.92        
Jun 18 13:55 NNE 10 8 Mostly Cloudy BKN075 70 70     100%     29.92        
Jun 18 13:35 NNE 14 8 Mostly Cloudy BKN080 70 70     100%     29.92        
Jun 18 13:15 N 10 9 Cloudy FEW019 SCT033 OVC085 70 70     100%     29.93        
Jun 18 12:55 NNE 7 9 Cloudy BKN018 BKN027 OVC034 72 70     94%   73 29.93        
Jun 18 12:35 NE 6 9 Mostly Cloudy FEW016 BKN020 BKN027 72 72     100%   73 29.94        
Jun 18 12:15 ENE 8 10 Mostly Cloudy FEW016 FEW023 BKN045 72 72     100%   73 29.94        
Jun 18 11:55 N 7 10 Cloudy FEW011 BKN046 OVC055 72 72     100%   73 29.94        
Jun 18 11:35 N 5 9 Cloudy BKN012 OVC055 70 70     100%     29.94        
Jun 18 11:15 NNE 7 9 Mostly Cloudy FEW009 SCT013 BKN065 70 70     100%     29.94        
Jun 18 10:55 NE 5 7 Partly Cloudy FEW008 FEW050 SCT085 70 70     100%     29.94        
Jun 18 10:35 Calm 7 Mostly Cloudy FEW007 SCT060 BKN085 68 68     100%     29.95        
Jun 18 10:15 ENE 5 7 Cloudy BKN060 BKN065 OVC075 68 68     100%     29.95        
Jun 18 09:55 ESE 6 5 Fog/Mist FEW050 BKN060 BKN070 66 66     100%     29.94        
Jun 18 09:35 ENE 6 5 Fog/Mist FEW055 SCT070 BKN085 66 66     100%     29.94        
Jun 18 09:15 ENE 6 5 Fog/Mist FEW055 SCT060 BKN080 66 66     100%     29.95        
Jun 18 08:55 NNE 6 4 Fog/Mist FEW016 FEW047 BKN065 66 66     100%     29.95        
Jun 18 08:35 Calm 4 Fog/Mist BKN017 OVC065 66 66     100%     29.95        
Jun 18 08:15 NE 3 5 Fog/Mist BKN017 OVC070 66 66     100%     29.95        
Jun 18 07:55 NE 5 5 Fog/Mist SCT017 SCT050 OVC070 66 66     100%     29.95        
Jun 18 07:35 NNE 5 6 Fog/Mist BKN050 OVC075 64 64     100%     29.95        
Jun 18 07:15 N 3 7 Cloudy BKN050 OVC070 64 64     100%     29.95        
Jun 18 06:55 Calm 5 Fog/Mist SCT048 BKN055 OVC070 64 64     100%     29.95        
Jun 18 06:35 Calm 6 Fog/Mist BKN047 BKN060 OVC070 64 64     100%     29.95        
Jun 18 06:15 ENE 3 5 Fog/Mist BKN047 OVC070 64 64     100%     29.95        
Jun 18 05:55 NNE 5 8 Cloudy FEW046 BKN070 OVC080 64 64     100%     29.94        
Jun 18 05:35 N 5 9 Cloudy BKN070 OVC085 64 64     100%     29.94        
Jun 18 05:15 Calm 10 Cloudy BKN070 OVC085 64 64     100%     29.94        
Jun 18 04:55 NE 3 10 Cloudy BKN070 OVC085 64 64     100%     29.94   0    
Jun 18 04:35 ESE 7 10 Cloudy FEW018 FEW055 OVC070 66 66     100%     29.93        
Jun 18 04:15 E 6 6 Light Rain FEW002 SCT055 OVC075 64 64     100%     29.94        
Jun 18 03:55 NE 5 1.75 Light Rain SCT002 BKN028 OVC075 64 64     100%     29.94   0    
Jun 18 03:35 Calm 9 Cloudy FEW050 OVC070 66 66     100%     29.95        
Jun 18 03:15 NW 6 10 Cloudy OVC070 66 66     100%     29.95        
Jun 18 02:55 Calm 10 Cloudy FEW043 BKN075 OVC090 66 66     100%     29.94        
Jun 18 02:35 ESE 6 10 Cloudy FEW044 SCT060 OVC075 66 66     100%     29.94        
Jun 18 02:15 ENE 3 10 Cloudy FEW055 BKN070 OVC085 66 66     100%     29.95        
Jun 18 01:55 E 5 10 Cloudy SCT065 BKN090 OVC110 66 66     100%     29.95        
Jun 18 01:35 E 6 7 Mostly Cloudy FEW031 SCT042 BKN065 66 66     100%     29.96        
Jun 18 01:15 Calm 9 Cloudy FEW047 BKN095 OVC120 66 66     100%     29.97        
Jun 18 00:55 Calm 10 Cloudy OVC110 66 66     100%     29.97        
Jun 18 00:35 Calm 10 Cloudy OVC110 66 66     100%     29.97        
Jun 18 00:15 Calm 10 Mostly Cloudy BKN110 66 66     100%     29.97        
Jun 17 23:55 NW 5 10 Mostly Clear FEW120 66 66     100%     29.98        
Jun 17 23:35 Calm 9 Mostly Clear FEW120 66 66     100%     29.97        
Jun 17 23:15 Calm 10 Partly Cloudy FEW047 FEW055 SCT120 66 66     100%     29.97        
Jun 17 22:55 NE 6 10 Mostly Cloudy SCT046 SCT055 BKN095 68 68     100%     29.97        
Jun 17 22:35 3 10 Partly Cloudy SCT095 SCT120 68 68     100%     29.96        
Jun 17 22:15 E 6 10 Mostly Cloudy FEW075 SCT095 BKN120 68 68     100%     29.95        
Jun 17 21:55 ESE 7 10 Mostly Cloudy SCT075 BKN090 68 68     100%     29.94        
Jun 17 21:35 E 9 10 Mostly Clear FEW075 FEW085 70 68     94%     29.94        
Jun 17 21:15 E 10 10 Clear CLR 70 68     94%     29.93        
Jun 17 20:55 E 11 10 Mostly Clear FEW095 70 68     94%     29.92        
Jun 17 20:35 E 13 10 Mostly Cloudy FEW080 BKN090 70 70     100%     29.92        
Jun 17 20:15 E 8 10 Cloudy SCT080 OVC095 70 70     100%     29.93        
Jun 17 19:55 E 11 10 Cloudy SCT080 OVC095 70 70     100%     29.93        
Jun 17 19:35   10 Cloudy FEW075 BKN090 OVC110 70 70     100%     29.94        
Jun 17 19:15   10 Mostly Cloudy BKN100 72 70     94%   73 29.93        
Jun 17 18:55   10 Mostly Cloudy BKN075 BKN090 BKN110 73 70     89%   75 29.93        
Jun 17 18:35   10 Mostly Cloudy BKN075 BKN110 73 70     89%   75 29.93        
Jun 17 18:15   10 Mostly Cloudy SCT075 BKN110 75 72     89%   77 29.92        
Jun 17 17:55 ENE 7 10 Mostly Cloudy BKN075 BKN110 75 72     89%   77 29.92        
Jun 17 17:35 ENE 6 9 Cloudy BKN075 OVC095 75 72     89%   77 29.93        
Jun 17 17:15 NE 5 6 Fog/Mist FEW075 OVC090 75 72     89%   77 29.93        
Jun 17 16:55 Calm 4 Fog/Mist OVC090 75 72     89%   77 29.93        
Jun 17 16:35 Calm 9 Cloudy FEW080 OVC090 75        %     29.94        
Jun 17 16:15 Calm 10 Mostly Cloudy FEW070 BKN095 75 73     94%   77 29.94        
Jun 17 15:55 NNW 5 10 Mostly Cloudy BKN100 75        %     29.95        
Jun 17 15:35 NW 6 9 Mostly Cloudy BKN100 73 72     94%   75 29.95        
Jun 17 14:55 N 9 3 Light Rain FEW003 SCT049 BKN070 72 72     100%   73 29.95   0    
Jun 17 14:35 WNW 8 1.75 Rain SCT003 BKN047 OVC055 72 72     100%   73 29.96        
Jun 17 14:15 WSW 9 10 Mostly Cloudy BKN055 BKN075 BKN120 79 64     61%   79 29.94        
Jun 17 13:55 SW 7 10 Partly Cloudy FEW050 SCT120 81 61     51%   81 29.94        
Jun 17 13:35 SW 6 10 Mostly Clear FEW050 FEW120 81 61     51%   81 29.95        
Jun 17 13:15 S 9 10 Clear CLR 82 63     51%   83 29.96        
Jun 17 12:55 SSE 9 10 Clear CLR 81 63     54%   82 29.96        
Jun 17 12:35 S 10 10 Clear CLR 81 61     51%   81 29.97        
Jun 17 12:15 S 10 10 Clear CLR 82 63     51%   83 29.97        
Jun 17 11:55 SSE 10 10 Clear CLR 81 61     51%   81 29.97        
Jun 17 11:35 S 11 9 Clear CLR 81 61     51%   81 29.97        
Jun 17 11:15 SSE 11 3 Haze CLR 79 61     54%   79 29.97        
Jun 17 10:55 SSE 11 10 Clear CLR 79 63     58%   79 29.97        
Jun 17 10:35 S 8 10 Clear CLR 77 64     65%   77 29.97        
Jun 17 10:15 SSE 9 6 Haze CLR 77 64     65%   77 29.97        
Jun 17 09:55 SE 6 10 Clear CLR 75 68     78%   76 29.97        
Jun 17 09:35 SSE 8 10 Clear CLR 73 68     83%   74 29.97        
Jun 17 09:15 SE 7 9 Clear CLR 72 68     88%   73 29.96        
Jun 17 08:55 SSE 7 10 Clear CLR 72 68     88%   73 29.96        
Jun 17 08:35 SSE 7 9 Clear CLR 70 68     94%     29.95        
Jun 17 08:15 SSE 7 10 Clear CLR 68 68     100%     29.95        
Jun 17 07:55 SE 6 10 Clear CLR 68 68     100%     29.95        
Jun 17 07:35 SE 6 10 Clear CLR 66 66     100%     29.95        
Jun 17 07:15 SE 5 10 Clear CLR 64 64     100%     29.94        
Jun 17 06:55 SE 7 10 Clear CLR 64 64     100%     29.94        
Jun 17 06:35 SE 7 8 Clear CLR 64 64     100%     29.93        
Jun 17 06:15 ESE 7 10 Clear CLR 63 63     100%     29.93        
Jun 17 05:55 SE 6 10 Clear CLR 63 63     100%     29.93        
Jun 17 05:35 SE 6 10 Clear CLR 64 64     100%     29.93        
Jun 17 05:15 SE 6 10 Clear CLR 64 64     100%     29.93        
Jun 17 04:55 ESE 7 10 Mostly Clear FEW120 64 64     100%     29.93        
Jun 17 04:35 SSE 5 10 Clear CLR 66 66     100%     29.93        
Jun 17 04:15 SE 3 10 Clear CLR 64 64     100%     29.92        
Jun 17 03:55 SSE 5 10 Mostly Cloudy BKN120 64 64     100%     29.92        
Jun 17 03:35 SE 3 10 Mostly Cloudy BKN120 66 66     100%     29.92        
Jun 17 03:15 SE 6 10 Clear CLR 66 66     100%     29.91        
Jun 17 02:55 SSE 7 10 Clear CLR 66 66     100%     29.91        
Jun 17 02:35 SE 6 10 Clear CLR 66 66     100%     29.91        
Jun 17 02:15 SSE 6 10 Clear CLR 66 66     100%     29.91        
Jun 17 01:55 SSE 6 10 Clear CLR 68 64     88%     29.91        
Jun 17 01:35   10 Clear   68 64     88%     29.91        
Jun 17 01:15 SE 8 10 Clear   68 63     83%     29.91        
Jun 17 00:55 SE 7 10 Clear   70 63     78%     29.91        
Jun 17 00:35 SE 7 10 Mostly Clear FEW100 70 63     78%     29.91        
Jun 17 00:15 SE 6 10 Partly Cloudy FEW075 SCT100 70 63     78%     29.91        
Jun 16 23:55 ESE 5 10 Mostly Cloudy SCT075 BKN110 72 63     73%   72 29.91        
Jun 16 23:35 ESE 5 10 Clear CLR 70 61     73%     29.9        
Jun 16 23:15 SE 5 10 Clear CLR 72 61     69%   72 29.89        
Jun 16 22:55 SE 3 10 Clear CLR 72 59     65%   71 29.89        
Jun 16 22:35 ESE 6 10 Clear CLR 72 59     65%   71 29.88        
Jun 16 22:15 SE 5 10 Clear CLR 73 57     57%   73 29.87        
Jun 16 21:55 ESE 3 10 Clear CLR 75 55     50%   75 29.87        
Jun 16 21:35 ESE 5 10 Clear CLR 75 54     47%   75 29.87        
Jun 16 21:15 E 7 10 Clear CLR 75 54     47%   75 29.86        
Jun 16 20:55 E 5 10 Clear CLR 77 54     44%   76 29.86        
Jun 16 20:35 ENE 5 10 Clear CLR 79 54     42%   78 29.86        
Jun 16 20:15 ENE 5 10 Clear CLR 79 54     42%   78 29.85        
Jun 16 19:55 ENE 5 10 Clear CLR 79 55     45%   78 29.85        
Jun 16 19:35 NE 6 10 Clear CLR 81 55     42%   81 29.85        
Jun 16 19:15 NE 5 10 Clear CLR 81 55     42%   81 29.85        
Jun 16 18:55 NE 5 10 Clear CLR 82 55     40%   82 29.84        
Jun 16 18:35 NE 5 10 Clear CLR 81 55     42%   81 29.84        
Jun 16 18:15 NNE 8 10 Clear CLR 81 54     39%   80 29.84        
Jun 16 17:55 NNE 8 10 Mostly Clear FEW075 82 54     37%   81 29.84        
Jun 16 17:35 NNE 8 9 Mostly Clear FEW070 82 52     35%   81 29.84        
Jun 16 17:15 NNE 8 10 Clear CLR 84 52     33%   82 29.84        
Jun 16 16:55 N 9 10 Clear CLR 84 52     33%   82 29.84        
Jun 16 16:35 7 10 Mostly Clear FEW065 82 55     40%   82 29.85        
Jun 16 16:15 N 8 10 Mostly Clear FEW065 FEW080 82 54     37%   81 29.85        
Jun 16 15:55 N 6 10 Mostly Clear FEW065 FEW080 82 55     40%   82 29.86        
Jun 16 15:35 N 9 10 Partly Cloudy FEW060 SCT070 82 55     40%   82 29.86        
Jun 16 15:15 NNW 10 10 Mostly Clear FEW060 FEW075 82 55     40%   82 29.86        
Jun 16 14:55 N 10 10 Mostly Clear FEW060 84 57     40%   83 29.86        
Jun 16 14:35 WNW 6 10 Clear CLR 82 55     40%   82 29.86        
Jun 16 14:15 WNW 7 10 Mostly Clear FEW055 82 59     45%   82 29.87        
Jun 16 13:55 N 9 10 Clear CLR 81 59     48%   81 29.87        
Jun 16 13:35 NNE 8 10 Clear CLR 81 57     45%   81 29.87        
Jun 16 13:15 N 10 10 Clear CLR 81 57     45%   81 29.87        
Jun 16 12:55 N 13 10 Clear CLR 79 57     48%   79 29.88        
Jun 16 12:35 NNW 8 10 Clear CLR 79 57     48%   79 29.88        
Jun 16 12:15 NNW 9 10 Clear CLR 79 57     48%   79 29.88        
Jun 16 11:55 NE 8 10 Clear CLR 79 63     58%   79 29.88        
Jun 16 11:35 NNE 10 10 Clear CLR 77 63     61%   77 29.87        
Jun 16 11:15 N 9 10 Clear CLR 75 64     69%   76 29.87        
Jun 16 10:55 NNW 8 10 Clear CLR 75 64     69%   76 29.87        
Jun 16 10:35 NNE 8 10 Clear CLR 75 66     74%   76 29.88        
Jun 16 10:15 N 8 10 Clear CLR 73 68     83%   74 29.88        
Jun 16 09:55 N 10 10 Clear CLR 73 68     83%   74 29.87        
Jun 16 09:35 N 9 10 Clear CLR 72 68     88%   73 29.87        
Jun 16 09:15 NNW 9 10 Clear CLR 72 68     88%   73 29.87        
Jun 16 08:55 NNW 8 10 Clear CLR 72 68     88%   73 29.87        
Jun 16 08:35 N 5 10 Clear CLR 70 66     88%     29.87        
Jun 16 08:15 NW 5 10 Clear CLR 68 66     94%     29.86        
Jun 16 07:55 NW 5 10 Clear CLR 66 64     94%     29.86        
Jun 16 07:35 NW 7 10 Clear CLR 66 64     94%     29.86        
Jun 16 07:15 NW 6 10 Clear CLR 64 63     94%     29.85        
Jun 16 06:55 NW 6 10 Clear CLR 64 63     94%     29.85        
Jun 16 06:35 W 3 10 Clear CLR 63 63     100%     29.84        
Jun 16 06:15 WNW 6 10 Clear CLR 63 63     100%     29.82        
Jun 16 05:55 W 8 10 Clear CLR 61 61     100%     29.82        
Jun 16 05:35 WNW 5 10 Clear CLR 64 59     83%     29.8        
Jun 16 05:15 NW 5 10 Clear CLR 64 59     83%     29.78        
Jun 16 04:55 NW 8 10 Clear CLR 64 59     83%     29.76        
Jun 16 04:35 NNW 7 10 Clear CLR 63 59     88%     29.73        
Jun 16 04:15 NW 7 10 Clear CLR 64 59     83%     29.74        
Jun 16 03:35 W 5 10 Clear CLR 66 57     73%     29.78        
Jun 16 03:15 W 3 10 Clear CLR 66 57     73%     29.79        
Jun 16 02:55 WNW 6 10 Clear CLR 66 57     73%     29.79        
May 15 06:55 N 6 1.5 Fog/Mist OVC003 57 57     100%     29.99        
May 14 23:35 N 6 10 Partly Cloudy SCT110 63 63     100%     29.91        
May 14 22:15 N 9 10 Cloudy BKN022 BKN080 OVC110 64 64     100%     29.91        
Notice The following observation data may not be complete
May 14 21:15   6 Fog/Mist BKN075 OVC090          %              
May 14 19:55 NNW 8 8 Cloudy OVC080 68 68     100%     29.87        
May 14 18:35 N 8 10 Cloudy OVC050 70 70     100%     29.89        
May 14 17:35 N 8 10 Mostly Cloudy FEW050 BKN100 73 70     89%   75 29.88        
May 14 10:55 WNW 6 5 Fog/Mist BKN008 BKN013 BKN095 64 64     100%     30        
May 14 06:15 NW 14 4 Fog/Mist BKN004 61 61     100%     29.9        
May 14 03:15   3 Light Rain BKN007 OVC021 61 61     100%              
May 14 00:35 ENE 8 7 Cloudy OVC021 61 61     100%     29.91        
May 13 22:35 NE 8 6 Fog/Mist OVC007 59 59     100%     29.93        
Notice The following observation data may not be complete
May 13 18:15   10 Clear CLR          %              
May 13 16:55 SW 8 10 Clear CLR 75 72     89%   77 29.9        
May 13 12:55 SE 18 10 Cloudy OVC028 63 63     100%     29.96        
Notice The following observation data may not be complete
May 13 06:15   0.75 Fog/Mist OVC003          %              
May 13 04:15 N 8 3 Fog/Mist OVC004 54 54     100%     29.96        
May 12 16:15 NNE 15 8 Clear   59 59     100%     29.92        
May 12 07:15 ENE 10 4 Light Rain BKN007 BKN015 OVC021 48 48     100% 44   29.95        
May 12 06:55   6 Fog/Mist OVC007 48 48     100%     29.91   0    
May 12 05:35   6 Light Rain OVC008 48 48     100%              
May 12 04:55 NE 13 10 Cloudy OVC008 50 50     100% 45   29.94        
May 12 00:15 NE 9 10 Cloudy BKN048 OVC060 57 57     100%     29.88        
May 11 22:15 NE 17 10 Cloudy OVC011 57 57     100%     29.87        
May 11 16:55 ENE 11 8 Mostly Cloudy BKN043 BKN055 BKN065 63 63     100%     29.78        
May 11 13:55 E 10 10 Cloudy SCT016 OVC050 64 64     100%     29.77        
Jun 11 22:55 S 16 10 Clear CLR 84 70     62%   88 29.77        
Jun 11 21:55 S 16 10 Partly Cloudy SCT070 86 70     59%   91 29.74        
Notice The following observation data may not be complete
Jun 11 19:35   10 Mostly Clear FEW075          %              
Notice The following observation data may not be complete
Jun 11 15:15   10 Clear CLR          %              
Notice The following observation data may not be complete
Jun 11 13:35   10 Clear CLR          %              
Jun 11 10:35 S 22 10 Clear and Windy CLR 82 68     62%   85 29.7        
Jun 11 10:15   10 Clear CLR 81 68     66%   83 29.71        
Jun 11 09:55 S 22 10 Mostly Clear and Windy FEW026 81 68     66%   83 29.71        
Notice The following observation data may not be complete
Jun 11 09:15   10 Clear CLR          %              
Jun 11 07:35 S 21 10 Clear and Windy CLR 75 68     78%   76 29.71        
Jun 10 22:55 S 16 10 Partly Cloudy SCT070 82 72     70%   87 29.7        
Jun 10 11:15 S 16 10 Clear CLR 81 68     66%   83 29.65        
Jun 10 10:15   9 Clear CLR 79 66     65%   79 29.66        
Notice The following observation data may not be complete
Jun 10 07:35   10 Clear CLR          %              
Jun 10 06:35 S 18 10 Clear CLR 70 64     83%     29.68        
Jun 10 02:35 S 16 10 Clear CLR 73 63     69%   74 29.69        
Notice The following observation data may not be complete
Jun 09 18:35   10 Clear CLR          %              
Jun 09 16:15 SSW 11 10 Clear CLR 88 54     31%   86 29.76        
Jun 09 13:15 SSW 16 10 Clear CLR 86 54     33%   84 29.82        
Notice The following observation data may not be complete
Jun 09 02:35   10 Clear CLR          %              
Jun 09 01:35 SSW 10 10 Clear CLR 70 52     53%     29.84        
Jun 08 21:55 S 7 10 Clear CLR 73 50     44%   72 29.86        
Jun 08 19:15 S 9 10 Clear   82 50     32%   81 29.86        
Jun 08 17:35 S 11 10 Clear CLR 84 54     35%   83 29.88        
Jun 08 07:55 SSW 7 10 Clear   66 52     60%     30.04        
Notice The following observation data may not be complete
Jun 07 23:35   10 Clear CLR          %              
Notice The following observation data may not be complete
Jun 07 23:15   10 Clear CLR          %              
Jun 07 19:35 SSW 6 10 Clear CLR 79 48     34%   78 30.03        
Jun 07 12:15 S 9 10 Clear   77 50     39%   76 30.11        
Jun 07 11:35 S 8 10 Clear CLR 77 52     41%   76 30.12        
Jun 06 09:55 ESE 11 10 Clear CLR 75 52     44%   74 30.07        
Notice The following observation data may not be complete
Jun 06 07:15   10 Clear CLR          %              
Jun 06 04:15 ESE 11 10 Clear CLR 66 55     68%     30        
Jun 06 01:35 ESE 8 10 Clear CLR 70 54     56%     29.98        
Notice The following observation data may not be complete
Jun 05 23:35   10 Clear CLR          %              
Jun 05 17:55 NE 8 10 Clear CLR 88 52     29%   85 29.86